| time (UTC) | temp F | wind direction | speed MPH | gust MPH | rain 1hr in | rain 24hr in | rain mn in | humidity % | barometer mb |
| 20260905180002 | 77 | 288 | 1.0 | 6.0 | 0.00 | 0.00 | 0.00 | 62 | 1011.1 |
| 20260905174603 | 79 | 84 | 1.0 | 7.0 | 0.00 | 0.00 | 0.00 | 62 | 1011.2 |
| 20260905173104 | 78 | 71 | 0.0 | 4.0 | 0.00 | 0.00 | 0.00 | 63 | 1011.0 |
| 20260905171558 | 78 | 293 | 1.0 | 6.0 | 0.00 | 0.00 | 0.00 | 64 | 1011.3 |
| 20260905170059 | 78 | 340 | 0.0 | 7.0 | 0.00 | 0.00 | 0.00 | 69 | 1011.2 |
| 20260905164539 | 77 | 140 | 2.0 | 6.0 | 0.00 | 0.00 | 0.00 | 66 | 1011.2 |
| 20260905163039 | 76 | 145 | 1.0 | 6.0 | 0.00 | 0.00 | 0.00 | 68 | 1011.3 |
| 20260905161519 | 78 | 89 | 2.0 | 6.0 | 0.00 | 0.00 | 0.00 | 65 | 1011.3 |
| 20260905160019 | 77 | 195 | 0.0 | 7.0 | 0.00 | 0.00 | 0.00 | 66 | 1011.2 |
| 20260905154618 | 77 | 65 | 1.0 | 7.0 | 0.00 | 0.00 | 0.00 | 66 | 1011.4 |
| 20260905153056 | 76 | 209 | 1.0 | 7.0 | 0.00 | 0.00 | 0.00 | 68 | 1011.4 |
| 20260905151557 | 76 | 72 | 1.0 | 8.0 | 0.00 | 0.00 | 0.00 | 68 | 1011.3 |
| 20260905150037 | 75 | 231 | 2.0 | 7.0 | 0.00 | 0.00 | 0.00 | 66 | 1011.4 |
| 20260905144537 | 75 | 243 | 1.0 | 6.0 | 0.00 | 0.00 | 0.00 | 70 | 1011.3 |
| 20260905143124 | 75 | 129 | 0.0 | 4.0 | 0.00 | 0.00 | 0.00 | 71 | 1011.2 |
| 20260905141527 | 74 | 224 | 0.0 | 6.0 | 0.00 | 0.00 | 0.00 | 73 | 1011.2 |
| 20260905140018 | 73 | 236 | 1.0 | 6.0 | 0.00 | 0.00 | 0.00 | 74 | 1011.3 |
| 20260905134515 | 72 | 245 | 1.0 | 5.0 | 0.00 | 0.00 | 0.00 | 76 | 1011.4 |
| 20260905133011 | 70 | 62 | 0.0 | 4.0 | 0.00 | 0.00 | 0.00 | 80 | 1011.4 |
| 20260905131515 | 69 | 49 | 0.0 | 3.0 | 0.00 | 0.00 | 0.00 | 81 | 1011.5 |
| 20260905130010 | 70 | 140 | 0.0 | 5.0 | 0.00 | 0.00 | 0.00 | 81 | 1011.6 |
| 20260905124511 | 69 | 327 | 0.0 | 3.0 | 0.00 | 0.00 | 0.00 | 82 | 1011.7 |
| 20260905123048 | 68 | 307 | 0.0 | 2.0 | 0.00 | 0.00 | 0.00 | 82 | 1011.9 |
| 20260905121544 | 67 | 281 | 0.0 | 2.0 | 0.00 | 0.00 | 0.00 | 86 | 1011.8 |
| 20260905120025 | 65 | 167 | 0.0 | 2.0 | 0.00 | 0.00 | 0.00 | 92 | 1011.8 |
| 20260905114520 | 62 | 319 | 0.0 | 1.0 | 0.00 | 0.00 | 0.00 | 97 | 1011.5 |
| 20260905113059 | 60 | 294 | 0.0 | 1.0 | 0.00 | 0.00 | 0.00 | 97 | 1011.4 |
| 20260905111558 | 58 | 307 | 0.0 | 0.0 | 0.00 | 0.00 | 0.00 | 97 | 1011.2 |
| 20260905110050 | 58 | 307 | 0.0 | 0.0 | 0.00 | 0.00 | 0.00 | 96 | 1011.2 |
| 20260905104540 | 57 | 307 | 0.0 | 0.0 | 0.00 | 0.00 | 0.00 | 96 | 1011.1 |
| 20260905103023 | 58 | 307 | 0.0 | 0.0 | 0.00 | 0.00 | 0.00 | 96 | 1011.0 |
| 20260905101526 | 57 | 307 | 0.0 | 0.0 | 0.00 | 0.00 | 0.00 | 96 | 1010.8 |
| 20260905100004 | 58 | 307 | 0.0 | 0.0 | 0.00 | 0.01 | 0.00 | 96 | 1010.8 |
| 20260905094605 | 57 | 307 | 0.0 | 0.0 | 0.00 | 0.01 | 0.00 | 96 | 1010.7 |
| 20260905093052 | 58 | 307 | 0.0 | 0.0 | 0.00 | 0.01 | 0.00 | 96 | 1010.6 |
| 20260905091602 | 58 | 307 | 0.0 | 0.0 | 0.00 | 0.01 | 0.00 | 96 | 1010.5 |
| 20260905090051 | 58 | 307 | 0.0 | 0.0 | 0.00 | 0.30 | 0.00 | 96 | 1010.5 |
| 20260905084549 | 58 | 307 | 0.0 | 0.0 | 0.00 | 0.30 | 0.00 | 96 | 1010.6 |
| 20260905083049 | 58 | 307 | 0.0 | 0.0 | 0.00 | 0.30 | 0.00 | 96 | 1010.7 |
| 20260905081548 | 58 | 307 | 0.0 | 0.0 | 0.00 | 0.30 | 0.00 | 96 | 1010.6 |
| 20260905080047 | 58 | 307 | 0.0 | 0.0 | 0.00 | 0.30 | 0.00 | 96 | 1010.5 |
| 20260905074547 | 58 | 308 | 0.0 | 3.0 | 0.00 | 0.30 | 0.00 | 96 | 1010.5 |
| 20260905073045 | 58 | 292 | 0.0 | 0.0 | 0.00 | 0.30 | 0.00 | 95 | 1010.5 |
| 20260905071543 | 58 | 292 | 0.0 | 0.0 | 0.00 | 0.30 | 0.00 | 95 | 1010.5 |
| 20260905070051 | 59 | 292 | 0.0 | 0.0 | 0.00 | 0.30 | 0.00 | 95 | 1010.6 |
| 20260905064546 | 59 | 292 | 0.0 | 0.0 | 0.00 | 0.30 | 0.00 | 94 | 1010.7 |
| 20260905063050 | 60 | 292 | 0.0 | 0.0 | 0.00 | 0.30 | 0.00 | 95 | 1010.9 |
| 20260905061542 | 60 | 292 | 0.0 | 0.0 | 0.00 | 0.30 | 0.00 | 95 | 1011.1 |
| 20260905060013 | 59 | 288 | 0.0 | 0.0 | 0.00 | 0.30 | 0.00 | 94 | 1011.3 |
| 20260905054511 | 60 | 288 | 0.0 | 0.0 | 0.00 | 0.30 | 0.00 | 95 | 1011.4 |
| 20260905053052 | 60 | 289 | 0.0 | 0.0 | 0.00 | 0.30 | 0.00 | 94 | 1011.3 |
| 20260905051550 | 60 | 289 | 0.0 | 0.0 | 0.00 | 0.30 | 0.00 | 94 | 1011.7 |
| 20260905050031 | 61 | 288 | 0.0 | 0.0 | 0.00 | 0.30 | 0.00 | 94 | 1011.7 |
| 20260905044531 | 61 | 288 | 0.0 | 0.0 | 0.00 | 0.30 | 0.00 | 94 | 1011.8 |
| 20260905043012 | 61 | 288 | 0.0 | 1.0 | 0.00 | 0.30 | 0.00 | 94 | 1011.8 |
| 20260905041512 | 61 | 288 | 0.0 | 0.0 | 0.00 | 0.30 | 0.00 | 94 | 1011.8 |
| 20260905040056 | 61 | 288 | 0.0 | 0.0 | 0.00 | 0.30 | 0.30 | 94 | 1011.8 |
| 20260905034551 | 61 | 288 | 0.0 | 0.0 | 0.00 | 0.30 | 0.30 | 94 | 1011.6 |
| 20260905033032 | 61 | 288 | 0.0 | 0.0 | 0.00 | 0.30 | 0.30 | 93 | 1011.6 |
| 20260905031531 | 62 | 288 | 0.0 | 0.0 | 0.00 | 0.30 | 0.30 | 93 | 1011.6 |
| 20260905030012 | 62 | 288 | 0.0 | 0.0 | 0.00 | 0.30 | 0.30 | 92 | 1011.5 |
| 20260905024514 | 63 | 288 | 0.0 | 0.0 | 0.00 | 0.30 | 0.30 | 93 | 1011.4 |
| 20260905023053 | 63 | 288 | 0.0 | 0.0 | 0.00 | 0.30 | 0.30 | 93 | 1011.5 |
| 20260905021553 | 63 | 288 | 0.0 | 0.0 | 0.00 | 0.30 | 0.30 | 93 | 1011.5 |
| 20260905020039 | 63 | 288 | 0.0 | 0.0 | 0.00 | 0.30 | 0.30 | 92 | 1011.7 |
| 20260905014537 | 64 | 288 | 0.0 | 0.0 | 0.00 | 0.30 | 0.30 | 91 | 1011.5 |
| 20260905013039 | 64 | 288 | 0.0 | 0.0 | 0.00 | 0.30 | 0.30 | 92 | 1011.5 |
| 20260905011535 | 64 | 288 | 0.0 | 0.0 | 0.00 | 0.30 | 0.30 | 90 | 1011.5 |
| 20260905010042 | 65 | 288 | 0.0 | 0.0 | 0.00 | 0.30 | 0.30 | 89 | 1011.7 |
| 20260905004532 | 65 | 288 | 0.0 | 0.0 | 0.00 | 0.30 | 0.30 | 88 | 1011.8 |
| 20260905003042 | 65 | 288 | 0.0 | 0.0 | 0.00 | 0.30 | 0.30 | 88 | 1011.7 |
| 20260905001531 | 65 | 288 | 0.0 | 0.0 | 0.00 | 0.30 | 0.30 | 86 | 1011.6 |
| 20260905000016 | 67 | 288 | 0.0 | 0.0 | 0.00 | 0.30 | 0.30 | 84 | 1011.5 |
| 20260904234513 | 68 | 288 | 0.0 | 0.0 | 0.00 | 0.30 | 0.30 | 83 | 1011.2 |
| 20260904233015 | 68 | 288 | 0.0 | 0.0 | 0.00 | 0.30 | 0.30 | 81 | 1011.2 |
| 20260904231513 | 70 | 288 | 0.0 | 0.0 | 0.00 | 0.30 | 0.30 | 79 | 1011.2 |
| 20260904230015 | 73 | 288 | 0.0 | 0.0 | 0.00 | 0.30 | 0.30 | 75 | 1011.1 |
| 20260904224515 | 75 | 288 | 0.0 | 1.0 | 0.00 | 0.30 | 0.30 | 71 | 1011.2 |
| 20260904223008 | 76 | 142 | 0.0 | 2.0 | 0.00 | 0.30 | 0.30 | 68 | 1011.2 |
| 20260904221508 | 77 | 321 | 0.0 | 2.0 | 0.00 | 0.30 | 0.30 | 66 | 1011.1 |
| 20260904220050 | 79 | 307 | 0.0 | 2.0 | 0.00 | 0.30 | 0.30 | 63 | 1011.1 |
| 20260904214550 | 81 | 297 | 0.0 | 3.0 | 0.00 | 0.30 | 0.30 | 59 | 1011.0 |
| 20260904213032 | 82 | 297 | 0.0 | 3.0 | 0.00 | 0.30 | 0.30 | 56 | 1011.0 |
| 20260904211631 | 83 | 117 | 0.0 | 3.0 | 0.00 | 0.30 | 0.30 | 59 | 1011.0 |
| 20260904210020 | 83 | 223 | 0.0 | 5.0 | 0.00 | 0.30 | 0.30 | 57 | 1011.1 |
| 20260904204521 | 82 | 255 | 0.0 | 6.0 | 0.00 | 0.30 | 0.30 | 56 | 1011.1 |
| 20260904203019 | 82 | 212 | 1.0 | 7.0 | 0.00 | 0.30 | 0.30 | 56 | 1011.1 |
| 20260904201517 | 81 | 281 | 0.0 | 12.0 | 0.00 | 0.30 | 0.30 | 60 | 1011.3 |
| 20260904200017 | 83 | 64 | 1.0 | 8.0 | 0.00 | 0.30 | 0.30 | 57 | 1011.2 |
| 20260904194517 | 83 | 264 | 1.0 | 8.0 | 0.00 | 0.30 | 0.30 | 54 | 1011.2 |
| 20260904193032 | 82 | 39 | 0.0 | 6.0 | 0.00 | 0.30 | 0.30 | 60 | 1011.2 |
| 20260904191613 | 82 | 293 | 1.0 | 7.0 | 0.00 | 0.30 | 0.30 | 61 | 1011.3 |
| 20260904190057 | 80 | 231 | 2.0 | 8.0 | 0.00 | 0.30 | 0.30 | 59 | 1011.5 |
| 20260904184554 | 81 | 229 | 3.0 | 9.0 | 0.00 | 0.30 | 0.30 | 61 | 1011.6 |
| 20260904183036 | 82 | 248 | 1.0 | 8.0 | 0.00 | 0.30 | 0.30 | 59 | 1011.5 |
| 20260904181535 | 82 | 321 | 2.0 | 8.0 | 0.00 | 0.30 | 0.30 | 61 | 1011.4 |